If you wish to contribute or participate in the discussions about articles you are invited to join SKYbrary as a registered user

 Actions

Sanikiluaq Airport

From SKYbrary Wiki

CYSK
Airport
ICAO: CYSK – IATA: YSK
Summary
Name Sanikiluaq Airport
Region North America
Territory Canada CA.gif
Location Sanikiluaq, Nunavut
Serving Sanikiluaq
Elevation 31.699 m
104 ft
104 ft31.699 m
Coordinates 56° 32' 16.12" N, 79° 14' 47.76" W
Runways
Designator Length Width Surface ROPS
9/27 1158 m3,799.213 ft
0 m0 ft
UNK /


METAR
Observation CYSK 121200Z 32019KT 2SM BR OVC002 10/10 A2967 RMK SF8 SLP051
Station Sanikiluaq Airport
Date/Time 12 August 2020 12:00:00
Wind direction 320°
Wind speed 19 kts
Lowest cloud amount overcast
Temperature 10°C
Dew point 10°C
Humidity 100%
QNH hPa
Weather condition mist

Sanikiluaq Airport is located at Sanikiluaq, Nunavut, Canada, and is operated by the Government of Nunavut. It is one of the few airports in Nunavut that uses magnetic headings for the runway rather than true headings.